This is the latest recevied weather packets stored in our database for station/object VA3WWD-2. If no packets are shown the sender has not sent any weather packets the latest 10 day(s).
| Time | Temp. | Humidity | Pressure | Rain* | Wind** | Luminosity | Snow |
|---|---|---|---|---|---|---|---|
| 1777735598 | 3.33° C | 58% | - | 0 mm | 0 m/s | - | - |
| 1777735300 | 2.22° C | 58% | - | 0 mm | 0 m/s | - | - |
| 1777735002 | 3.33° C | 62% | - | 0 mm | 0 m/s | - | - |
| 1777734402 | 2.78° C | 64% | - | 0 mm | 0 m/s | - | - |
| 1777734104 | 2.22° C | 65% | - | 0 mm | 0 m/s | - | - |
| 1777733803 | 2.22° C | 64% | - | 0 mm | 0 m/s | - | - |
| 1777733505 | 1.11° C | 67% | - | 0 mm | 0 m/s | - | - |
| 1777733207 | 1.11° C | 68% | - | 0 mm | 0 m/s | - | - |
| 1777732906 | 1.11° C | 70% | - | 0 mm | 0 m/s | - | - |
| 1777732608 | 1.11° C | 72% | - | 0 mm | 0 m/s | - | - |
| 1777731711 | 1.67° C | 74% | - | 0 mm | 0 m/s | - | - |
| 1777731413 | 1.67° C | 75% | - | 0 mm | 0 m/s | - | - |
| 1777730814 | 1.11° C | 76% | - | 0 mm | 0 m/s | - | - |
| 1777730516 | 1.11° C | 77% | - | 0 mm | 0 m/s | - | - |
| 1777730215 | 1.11° C | 78% | - | 0 mm | 0 m/s | - | - |
| 1777729917 | 0.56° C | 78% | - | 0 mm | 0 m/s | - | - |
| 1777729020 | 0.56° C | 80% | - | 0 mm | 0 m/s | - | - |
| 1777728421 | 1.11° C | 80% | - | 0 mm | 0 m/s | - | - |
| 1777728123 | 1.11° C | 81% | - | 0 mm | 0 m/s | - | - |
| 1777727825 | 0.56° C | 81% | - | 0 mm | 0 m/s | - | - |
| 1777727524 | 0.56° C | 81% | - | 0 mm | 0 m/s | - | - |
| 1777727226 | 0° C | 82% | - | 0 mm | 0 m/s | - | - |
| 1777726928 | 0.56° C | 82% | - | 0 mm | 0 m/s | - | - |
| 1777726329 | 0° C | 82% | - | 0 mm | 0 m/s | - | - |
| 1777726031 | 0° C | 83% | - | 0 mm | 0 m/s | - | - |
* Rain latest hour (hover to see other rain measurements)
** Current wind speed in m/s (hover to see current wind gust speed)